Location: Central Falls
(41.8900°N, 71.3929°W)
Time: 03:29:06
(UTC+00:00)

Tiros 1 - Pass Details

Date: 09 December 2023
Orbit: 625 x 658 km, 48.4° (Epoch: 01 March)

Event Time Altitude Azimuth Distance (km) Brightness Sun altitude
Rises 07:38:58 0° 238° (WSW) 2,959 - -47.8°
Reaches altitude 10° 07:41:17 10° 237° (WSW) 2,055 - -47.4°
Maximum altitude 07:46:03 84° 151° (SSE) 665 - -46.6°
Drops below altitude 10° 07:50:51 10° 63° (ENE) 2,074 - -45.7°
Exits shadow 07:52:07 - 63° (ENE) 2,565 10.8 -45.4°
Sets 07:53:12 0° 63° (ENE) 2,989 11.3 -45.2°
